| time (UTC) | temp C | wind direction | speed KPH | gust KPH | rain 1hr cm | rain 24hr cm | rain mn cm | humidity % | barometer mb |
| 20260505124615 | 11 | 23 | 0.0 | 0.0 | 0.00 | 0.00 | 0.00 | 96 | 1022.0 |
| 20260505124114 | 11 | 23 | 0.0 | 1.6 | 0.00 | 0.00 | 0.00 | 95 | 1022.0 |
| 20260505123615 | 11 | 315 | 1.6 | 3.2 | 0.00 | 0.00 | 0.00 | 95 | 1022.0 |
| 20260505123114 | 11 | 315 | 1.6 | 3.2 | 0.00 | 0.00 | 0.00 | 95 | 1022.0 |
| 20260505122615 | 11 | 270 | 0.0 | 1.6 | 0.00 | 0.00 | 0.00 | 96 | 1022.0 |
| 20260505122115 | 11 | 270 | 0.0 | 1.6 | 0.00 | 0.00 | 0.00 | 96 | 1022.0 |
| 20260505121615 | 11 | 225 | 1.6 | 3.2 | 0.00 | 0.00 | 0.00 | 96 | 1022.0 |
| 20260505121115 | 11 | 203 | 0.0 | 0.0 | 0.00 | 0.00 | 0.00 | 96 | 1022.0 |
| 20260505120615 | 11 | 315 | 3.2 | 3.2 | 0.00 | 0.00 | 0.00 | 96 | 1022.0 |
| 20260505120114 | 11 | 248 | 0.0 | 0.0 | 0.00 | 0.00 | 0.00 | 96 | 1022.0 |
| 20260505115617 | 11 | 293 | 0.0 | 1.6 | 0.00 | 0.00 | 0.00 | 96 | 1022.0 |
| 20260505115115 | 11 | 293 | 0.0 | 1.6 | 0.00 | 0.00 | 0.00 | 96 | 1022.0 |
| 20260505114615 | 11 | 270 | 0.0 | 1.6 | 0.00 | 0.00 | 0.00 | 96 | 1022.0 |
| 20260505114115 | 11 | 225 | 1.6 | 3.2 | 0.00 | 0.00 | 0.00 | 95 | 1022.0 |
| 20260505113614 | 11 | 270 | 0.0 | 1.6 | 0.00 | 0.00 | 0.00 | 95 | 1022.0 |
| 20260505113115 | 11 | 293 | 1.6 | 3.2 | 0.00 | 0.00 | 0.00 | 95 | 1022.0 |
| 20260505112614 | 11 | 225 | 0.0 | 1.6 | 0.00 | 0.00 | 0.00 | 95 | 1022.0 |
| 20260505112115 | 11 | 270 | 1.6 | 3.2 | 0.00 | 0.00 | 0.00 | 94 | 1022.0 |
| 20260505111614 | 11 | 203 | 1.6 | 3.2 | 0.00 | 0.00 | 0.00 | 94 | 1022.0 |
| 20260505111115 | 11 | 293 | 0.0 | 1.6 | 0.00 | 0.00 | 0.00 | 94 | 1022.0 |
| 20260505110615 | 11 | 248 | 1.6 | 3.2 | 0.00 | 0.00 | 0.00 | 94 | 1022.0 |
| 20260505110114 | 11 | 270 | 0.0 | 0.0 | 0.00 | 0.00 | 0.00 | 93 | 1022.0 |
| 20260505102115 | 11 | 135 | 0.0 | 1.6 | 0.00 | 0.00 | 0.00 | 93 | 1022.0 |
| 20260505101614 | 11 | 203 | 0.0 | 1.6 | 0.00 | 0.00 | 0.00 | 92 | 1022.0 |
| 20260505101115 | 11 | 90 | 0.0 | 0.0 | 0.00 | 0.00 | 0.00 | 92 | 1022.0 |
| 20260505100615 | 11 | 225 | 0.0 | 0.0 | 0.00 | 0.00 | 0.00 | 92 | 1022.0 |
| 20260505100114 | 11 | 68 | 0.0 | 0.0 | 0.00 | 0.00 | 0.00 | 91 | 1021.0 |
| 20260505095614 | 11 | 338 | 0.0 | 1.6 | 0.00 | 0.00 | 0.00 | 91 | 1021.0 |
| 20260505095114 | 11 | 135 | 0.0 | 0.0 | 0.00 | 0.00 | 0.00 | 91 | 1022.0 |
| 20260505094614 | 11 | 225 | 0.0 | 1.6 | 0.00 | 0.00 | 0.00 | 91 | 1022.0 |
| 20260505094115 | 11 | 270 | 0.0 | 0.0 | 0.00 | 0.00 | 0.00 | 91 | 1021.0 |
| 20260505093614 | 11 | 293 | 0.0 | 1.6 | 0.00 | 0.00 | 0.00 | 91 | 1021.0 |
| 20260505093114 | 11 | 270 | 0.0 | 1.6 | 0.00 | 0.00 | 0.00 | 91 | 1021.0 |
| 20260505092614 | 11 | 293 | 0.0 | 1.6 | 0.00 | 0.00 | 0.00 | 91 | 1021.0 |
| 20260505092114 | 11 | 248 | 0.0 | 1.6 | 0.00 | 0.00 | 0.00 | 91 | 1021.0 |
| 20260505091614 | 11 | 270 | 0.0 | 1.6 | 0.00 | 0.00 | 0.00 | 91 | 1021.0 |
| 20260505091114 | 11 | 90 | 0.0 | 0.0 | 0.00 | 0.00 | 0.00 | 91 | 1021.0 |
| 20260505090615 | 11 | 113 | 0.0 | 0.0 | 0.00 | 0.00 | 0.00 | 92 | 1021.0 |
| 20260505090115 | 11 | 113 | 0.0 | 0.0 | 0.00 | 0.00 | 0.00 | 92 | 1021.0 |
| 20260505085614 | 11 | 113 | 0.0 | 0.0 | 0.00 | 0.00 | 0.00 | 92 | 1021.0 |
| 20260505085115 | 11 | 90 | 0.0 | 0.0 | 0.00 | 0.00 | 0.00 | 92 | 1021.0 |
| 20260505084614 | 11 | 180 | 0.0 | 0.0 | 0.00 | 0.00 | 0.00 | 92 | 1021.0 |
| 20260505084114 | 11 | 113 | 0.0 | 0.0 | 0.00 | 0.00 | 0.00 | 92 | 1021.0 |
| 20260505083615 | 11 | 90 | 0.0 | 0.0 | 0.00 | 0.00 | 0.00 | 92 | 1021.0 |
| 20260505083114 | 11 | 270 | 0.0 | 0.0 | 0.00 | 0.00 | 0.00 | 92 | 1021.0 |
| 20260505082614 | 11 | 225 | 0.0 | 0.0 | 0.00 | 0.00 | 0.00 | 93 | 1021.0 |
| 20260505082115 | 11 | 158 | 0.0 | 0.0 | 0.00 | 0.00 | 0.00 | 93 | 1021.0 |
| 20260505081614 | 11 | 135 | 0.0 | 0.0 | 0.00 | 0.00 | 0.00 | 94 | 1021.0 |
| 20260505081114 | 10 | 315 | 0.0 | 0.0 | 0.00 | 0.00 | 0.00 | 94 | 1021.0 |
| 20260505080616 | 10 | 135 | 0.0 | 0.0 | 0.00 | 0.00 | 0.00 | 94 | 1021.0 |
| 20260505080115 | 10 | 135 | 0.0 | 1.6 | 0.00 | 0.00 | 0.00 | 95 | 1021.0 |
| 20260505075616 | 10 | 135 | 0.0 | 0.0 | 0.00 | 0.00 | 0.00 | 95 | 1021.0 |
| 20260505075114 | 10 | 90 | 0.0 | 0.0 | 0.00 | 0.00 | 0.00 | 95 | 1021.0 |
| 20260505074614 | 10 | 113 | 0.0 | 0.0 | 0.00 | 0.00 | 0.00 | 94 | 1021.0 |
| 20260505074115 | 10 | 248 | 0.0 | 0.0 | 0.00 | 0.00 | 0.00 | 94 | 1021.0 |
| 20260505073614 | 10 | 180 | 1.6 | 3.2 | 0.00 | 0.00 | 0.00 | 95 | 1021.0 |
| 20260505073115 | 10 | 135 | 0.0 | 0.0 | 0.00 | 0.00 | 0.00 | 94 | 1021.0 |
| 20260505072615 | 10 | 135 | 0.0 | 0.0 | 0.00 | 0.00 | 0.00 | 93 | 1021.0 |
| 20260505072115 | 10 | 158 | 0.0 | 0.0 | 0.00 | 0.00 | 0.00 | 93 | 1021.0 |
| 20260505071614 | 11 | 203 | 0.0 | 0.0 | 0.00 | 0.00 | 0.00 | 93 | 1021.0 |
| 20260505071117 | 11 | 225 | 0.0 | 0.0 | 0.00 | 0.00 | 0.00 | 92 | 1021.0 |
| 20260505070615 | 11 | 90 | 0.0 | 0.0 | 0.00 | 0.00 | 0.00 | 92 | 1021.0 |
| 20260505070114 | 11 | 113 | 0.0 | 0.0 | 0.00 | 0.00 | 0.00 | 92 | 1021.0 |
| 20260505065614 | 11 | 248 | 0.0 | 0.0 | 0.00 | 0.00 | 0.00 | 91 | 1021.0 |
| 20260505065114 | 11 | 270 | 0.0 | 1.6 | 0.00 | 0.00 | 0.00 | 91 | 1021.0 |
| 20260505064614 | 11 | 68 | 0.0 | 0.0 | 0.00 | 0.00 | 0.00 | 91 | 1021.0 |
| 20260505064114 | 11 | 90 | 0.0 | 0.0 | 0.00 | 0.00 | 0.00 | 90 | 1021.0 |
| 20260505063614 | 12 | 248 | 3.2 | 3.2 | 0.00 | 0.00 | 0.00 | 90 | 1021.0 |
| 20260505063114 | 12 | 90 | 0.0 | 0.0 | 0.00 | 0.00 | 0.00 | 89 | 1020.0 |
| 20260505062615 | 12 | 90 | 0.0 | 0.0 | 0.00 | 0.00 | 0.00 | 88 | 1020.0 |
| 20260505062114 | 12 | 23 | 0.0 | 0.0 | 0.00 | 0.00 | 0.00 | 87 | 1020.0 |
| 20260505061614 | 12 | 203 | 0.0 | 0.0 | 0.00 | 0.00 | 0.00 | 87 | 1020.0 |
| 20260505061115 | 12 | 338 | 0.0 | 0.0 | 0.00 | 0.00 | 0.00 | 86 | 1020.0 |
| 20260505060616 | 13 | 248 | 1.6 | 3.2 | 0.00 | 0.00 | 0.00 | 85 | 1020.0 |
| 20260505060115 | 13 | 248 | 3.2 | 4.8 | 0.00 | 0.00 | 0.00 | 85 | 1020.0 |
| 20260505055614 | 13 | 248 | 3.2 | 3.2 | 0.00 | 0.00 | 0.00 | 85 | 1020.0 |
| 20260505055115 | 13 | 248 | 1.6 | 3.2 | 0.00 | 0.00 | 0.00 | 85 | 1020.0 |
| 20260505054614 | 13 | 248 | 0.0 | 1.6 | 0.00 | 0.00 | 0.00 | 85 | 1020.0 |
| 20260505054114 | 13 | 248 | 0.0 | 1.6 | 0.00 | 0.00 | 0.00 | 84 | 1020.0 |
| 20260505053614 | 13 | 248 | 0.0 | 0.0 | 0.00 | 0.00 | 0.00 | 83 | 1020.0 |
| 20260505053115 | 13 | 135 | 0.0 | 0.0 | 0.00 | 0.00 | 0.00 | 83 | 1020.0 |
| 20260505052614 | 13 | 203 | 0.0 | 1.6 | 0.00 | 0.00 | 0.00 | 82 | 1020.0 |
| 20260505052115 | 13 | 248 | 1.6 | 3.2 | 0.00 | 0.00 | 0.00 | 81 | 1020.0 |
| 20260505051615 | 14 | 270 | 3.2 | 3.2 | 0.00 | 0.00 | 0.00 | 81 | 1020.0 |
| 20260505051115 | 13 | 248 | 3.2 | 3.2 | 0.00 | 0.00 | 0.00 | 82 | 1020.0 |
| 20260505050614 | 13 | 270 | 1.6 | 3.2 | 0.00 | 0.00 | 0.00 | 81 | 1020.0 |
| 20260505050114 | 13 | 225 | 0.0 | 1.6 | 0.00 | 0.00 | 0.00 | 79 | 1020.0 |
| 20260505041614 | 16 | 315 | 1.6 | 1.6 | 0.00 | 0.00 | 0.00 | 68 | 1019.0 |
| 20260505041115 | 16 | 248 | 1.6 | 3.2 | 0.00 | 0.00 | 0.00 | 67 | 1019.0 |
| 20260505040614 | 16 | 248 | 3.2 | 3.2 | 0.00 | 0.00 | 0.00 | 66 | 1019.0 |
| 20260505040114 | 17 | 270 | 1.6 | 3.2 | 0.00 | 0.00 | 0.00 | 63 | 1019.0 |
| 20260505035614 | 17 | 270 | 4.8 | 4.8 | 0.00 | 0.00 | 0.00 | 61 | 1019.0 |
| 20260505035114 | 17 | 248 | 1.6 | 3.2 | 0.00 | 0.00 | 0.00 | 60 | 1019.0 |
| 20260505034614 | 18 | 180 | 1.6 | 3.2 | 0.00 | 0.00 | 0.00 | 57 | 1019.0 |
| 20260505034114 | 18 | 225 | 3.2 | 3.2 | 0.00 | 0.00 | 0.00 | 55 | 1019.0 |
| 20260505033614 | 18 | 293 | 4.8 | 6.4 | 0.00 | 0.00 | 0.00 | 54 | 1019.0 |
| 20260505033114 | 18 | 293 | 4.8 | 6.4 | 0.00 | 0.00 | 0.00 | 54 | 1019.0 |
| 20260505032614 | 18 | 270 | 4.8 | 8.0 | 0.00 | 0.00 | 0.00 | 54 | 1019.0 |
| 20260505032114 | 18 | 315 | 4.8 | 6.4 | 0.00 | 0.00 | 0.00 | 53 | 1019.0 |
| 20260505031614 | 18 | 270 | 6.4 | 8.0 | 0.00 | 0.00 | 0.00 | 53 | 1018.0 |
| 20260505031115 | 19 | 0 | 4.8 | 6.4 | 0.00 | 0.00 | 0.00 | 52 | 1019.0 |
| 20260505030614 | 19 | 293 | 3.2 | 3.2 | 0.00 | 0.00 | 0.00 | 53 | 1018.0 |
| 20260505030115 | 20 | 293 | 8.0 | 11.3 | 0.00 | 0.00 | 0.00 | 52 | 1018.0 |
| 20260505025614 | 20 | 293 | 8.0 | 9.7 | 0.00 | 0.00 | 0.00 | 51 | 1018.0 |
| 20260505025115 | 20 | 293 | 4.8 | 9.7 | 0.00 | 0.00 | 0.00 | 49 | 1018.0 |
| 20260505024614 | 21 | 293 | 4.8 | 6.4 | 0.00 | 0.00 | 0.00 | 48 | 1018.0 |
| 20260505024114 | 21 | 338 | 8.0 | 11.3 | 0.00 | 0.00 | 0.00 | 47 | 1018.0 |
| 20260505023615 | 21 | 270 | 4.8 | 8.0 | 0.00 | 0.00 | 0.00 | 46 | 1018.0 |
| 20260505023115 | 21 | 293 | 4.8 | 4.8 | 0.00 | 0.00 | 0.00 | 45 | 1018.0 |
| 20260505022615 | 21 | 315 | 8.0 | 11.3 | 0.00 | 0.00 | 0.00 | 44 | 1018.0 |
| 20260505022115 | 21 | 270 | 4.8 | 9.7 | 0.00 | 0.00 | 0.00 | 44 | 1017.0 |
| 20260505021616 | 22 | 293 | 8.0 | 9.7 | 0.00 | 0.00 | 0.00 | 43 | 1018.0 |
| 20260505021114 | 22 | 270 | 4.8 | 8.0 | 0.00 | 0.00 | 0.00 | 42 | 1018.0 |
| 20260505020614 | 22 | 270 | 8.0 | 9.7 | 0.00 | 0.00 | 0.00 | 41 | 1018.0 |
| 20260505020115 | 22 | 270 | 4.8 | 6.4 | 0.00 | 0.00 | 0.00 | 40 | 1018.0 |
| 20260505015614 | 23 | 225 | 6.4 | 9.7 | 0.00 | 0.00 | 0.00 | 39 | 1018.0 |
| 20260505015115 | 23 | 293 | 8.0 | 8.0 | 0.00 | 0.00 | 0.00 | 39 | 1018.0 |
| 20260505014615 | 23 | 180 | 4.8 | 4.8 | 0.00 | 0.00 | 0.00 | 37 | 1018.0 |
| 20260505014116 | 23 | 270 | 14.5 | 16.1 | 0.00 | 0.00 | 0.00 | 38 | 1018.0 |
| 20260505013616 | 24 | 293 | 4.8 | 9.7 | 0.00 | 0.00 | 0.00 | 40 | 1018.0 |
| 20260505013114 | 24 | 45 | 1.6 | 3.2 | 0.00 | 0.00 | 0.00 | 43 | 1018.0 |
| 20260505012614 | 24 | 248 | 11.3 | 14.5 | 0.00 | 0.00 | 0.00 | 42 | 1018.0 |
| 20260505012115 | 25 | 315 | 1.6 | 3.2 | 0.00 | 0.00 | 0.00 | 44 | 1018.0 |
| 20260505011616 | 25 | 180 | 3.2 | 3.2 | 0.00 | 0.00 | 0.00 | 46 | 1018.0 |
| 20260504193114 | 21 | 248 | 3.2 | 3.2 | 0.00 | 0.00 | 0.00 | 56 | 1019.0 |
| 20260504192615 | 21 | 315 | 3.2 | 4.8 | 0.00 | 0.00 | 0.00 | 55 | 1019.0 |
| 20260504192114 | 21 | 248 | 11.3 | 12.9 | 0.00 | 0.00 | 0.00 | 54 | 1019.0 |
| 20260504191614 | 21 | 270 | 6.4 | 6.4 | 0.00 | 0.00 | 0.00 | 59 | 1020.0 |
| 20260504191115 | 21 | 293 | 6.4 | 11.3 | 0.00 | 0.00 | 0.00 | 56 | 1019.0 |
| 20260504190615 | 21 | 293 | 1.6 | 3.2 | 0.00 | 0.00 | 0.00 | 58 | 1019.0 |
| 20260504190114 | 21 | 225 | 8.0 | 9.7 | 0.00 | 0.00 | 0.00 | 60 | 1020.0 |
| 20260504185615 | 21 | 45 | 1.6 | 6.4 | 0.00 | 0.00 | 0.00 | 60 | 1020.0 |
| 20260504185114 | 21 | 248 | 3.2 | 6.4 | 0.00 | 0.00 | 0.00 | 60 | 1020.0 |
| 20260504184614 | 21 | 135 | 3.2 | 3.2 | 0.00 | 0.00 | 0.00 | 59 | 1020.0 |
| 20260504184115 | 20 | 90 | 3.2 | 4.8 | 0.00 | 0.00 | 0.00 | 61 | 1020.0 |
| 20260504183614 | 21 | 248 | 1.6 | 3.2 | 0.00 | 0.00 | 0.00 | 62 | 1020.0 |
| 20260504183114 | 20 | 338 | 3.2 | 4.8 | 0.00 | 0.00 | 0.00 | 63 | 1020.0 |
| 20260504182615 | 20 | 293 | 3.2 | 8.0 | 0.00 | 0.00 | 0.00 | 64 | 1020.0 |
| 20260504182114 | 20 | 315 | 6.4 | 8.0 | 0.00 | 0.00 | 0.00 | 62 | 1020.0 |
| 20260504181614 | 20 | 270 | 8.0 | 9.7 | 0.00 | 0.00 | 0.00 | 64 | 1020.0 |
| 20260504181114 | 20 | 338 | 1.6 | 3.2 | 0.00 | 0.00 | 0.00 | 65 | 1020.0 |
| 20260504180615 | 20 | 248 | 4.8 | 6.4 | 0.00 | 0.00 | 0.00 | 63 | 1020.0 |
| 20260504180115 | 19 | 225 | 0.0 | 1.6 | 0.00 | 0.00 | 0.00 | 66 | 1020.0 |
| 20260504175614 | 19 | 270 | 6.4 | 8.0 | 0.00 | 0.00 | 0.00 | 65 | 1020.0 |
| 20260504175115 | 19 | 270 | 8.0 | 9.7 | 0.00 | 0.00 | 0.00 | 65 | 1020.0 |
| 20260504174615 | 18 | 225 | 4.8 | 6.4 | 0.00 | 0.00 | 0.00 | 66 | 1020.0 |
| 20260504174115 | 20 | 90 | 1.6 | 3.2 | 0.00 | 0.00 | 0.00 | 63 | 1020.0 |
| 20260504173615 | 19 | 158 | 0.0 | 0.0 | 0.00 | 0.00 | 0.00 | 65 | 1020.0 |
| 20260504173115 | 19 | 270 | 4.8 | 6.4 | 0.00 | 0.00 | 0.00 | 64 | 1020.0 |
| 20260504172614 | 20 | 180 | 1.6 | 3.2 | 0.00 | 0.00 | 0.00 | 60 | 1020.0 |
| 20260504172115 | 19 | 338 | 3.2 | 4.8 | 0.00 | 0.00 | 0.00 | 61 | 1020.0 |
| 20260504171614 | 19 | 338 | 3.2 | 3.2 | 0.00 | 0.00 | 0.00 | 64 | 1019.0 |
| 20260504171114 | 19 | 225 | 3.2 | 3.2 | 0.00 | 0.00 | 0.00 | 62 | 1020.0 |
| 20260504170615 | 18 | 68 | 4.8 | 6.4 | 0.00 | 0.00 | 0.00 | 62 | 1019.0 |
| 20260504170115 | 18 | 180 | 4.8 | 8.0 | 0.00 | 0.00 | 0.00 | 62 | 1020.0 |
| 20260504160115 | 16 | 23 | 3.2 | 3.2 | 0.00 | 0.00 | 0.00 | 71 | 1019.0 |
| 20260504151115 | 12 | 338 | 0.0 | 0.0 | 0.00 | 0.00 | 0.00 | 85 | 1019.0 |
| 20260504150614 | 12 | 338 | 0.0 | 1.6 | 0.00 | 0.00 | 0.00 | 85 | 1019.0 |
| 20260504150115 | 12 | 68 | 0.0 | 1.6 | 0.00 | 0.00 | 0.00 | 86 | 1019.0 |
| 20260504141117 | 10 | 203 | 0.0 | 0.0 | 0.00 | 0.00 | 0.00 | 94 | 1018.0 |
| 20260504140615 | 10 | 158 | 0.0 | 0.0 | 0.00 | 0.00 | 0.00 | 94 | 1018.0 |
| 20260504140114 | 10 | 113 | 0.0 | 0.0 | 0.00 | 0.00 | 0.00 | 94 | 1018.0 |
| 20260504130614 | 9 | 45 | 0.0 | 0.0 | 0.00 | 0.00 | 0.00 | 94 | 1018.0 |
| 20260504130115 | 9 | 158 | 0.0 | 0.0 | 0.00 | 0.00 | 0.00 | 94 | 1018.0 |